Regional Weather Roundup
Issued by NWS

Home | Current Version | Previous Version | Text Only | Print | Product List | Glossary On
Versions: 1 2 3 4 5 6 7 8 9 10 11 12 13 14 15 16 17 18 19 20 21 22 23 24 25 26 27 28 29 30 31 32 33 34 35 36 37 38 39 40 41 42 43 44 45 46 47 48 49 50
000
ASUS44 KOUN 281210
RWROK

WEATHER ROUNDUP FOR OKLAHOMA
NATIONAL WEATHER SERVICE NORMAN OK
600 AM CST TUE FEB 28 2017

NOTE: "FAIR" INDICATES FEW OR NO CLOUDS BELOW 12,000 FEET WITH NO
      SIGNIFICANT WEATHER AND/OR OBSTRUCTIONS TO VISIBILITY.

OKZ001>007-009>012-014-015-017-281300-
NORTHWEST OKLAHOMA AND THE PANHANDLE

CITY           SKY/WX    TMP DP  RH WIND       PRES   REMARKS
GAGE           CLOUDY    50  23  34 S13       29.72R
6HR MIN TEMP:  43; 6HR MAX TEMP:  57;

GUYMON         CLOUDY    45  20  36 SW13      29.68F
ENID/WOODRING  CLOUDY    54  54 100 S8        29.73R FOG
$$

OKZ016-021>023-033>039-044-045-281300-
SOUTHWEST OKLAHOMA

CITY           SKY/WX    TMP DP  RH WIND       PRES   REMARKS
LAWTON/REGL    CLOUDY    60  57  89 CALM      29.81R
6HR MIN TEMP:  56; 6HR MAX TEMP:  63;

LAWTON/FT SILL CLOUDY    58  58 100 SW6       29.79R
FREDERICK      CLOUDY    57  54  89 S10       29.77R
CLINTON        CLOUDY    50  35  56 SW10      29.78R
HOBART         CLOUDY    56  50  80 S14       29.79R
ALTUS AFB      CLOUDY    51  42  70 SE6       29.79R
$$

OKZ018>020-024>031-281300-
CENTRAL OKLAHOMA

CITY           SKY/WX    TMP DP  RH WIND       PRES   REMARKS
OKLAHOMA CITY  MOCLDY    59  58  96 S10       29.79R FOG
6HR MIN TEMP:  59; 6HR MAX TEMP:  61;

OKC/WILEY POST MOCLDY    61  59  93 S12       29.78R
OKC/TINKER AFB PTCLDY    61  60  99 S16       29.78R
STILLWATER     CLOUDY    59  58  96 S7        29.75S FOG
GUTHRIE        CLOUDY    63  59  87 S16G25    29.75R
$$

OKZ008-013-054>072-281300-
NORTHEAST OKLAHOMA

CITY           SKY/WX    TMP DP  RH WIND       PRES   REMARKS
TULSA          CLOUDY    65  62  90 S15       29.76R
6HR MIN TEMP:  63; 6HR MAX TEMP:  65;

TULSA/JONES    CLOUDY    66  61  84 S13       29.78R
PONCA CITY     CLOUDY    61  57  87 S10       29.72F FOG
BARTLESVILLE   CLOUDY    64  59  83 S10       29.76R
MUSKOGEE       CLOUDY    67  63  87 S16G23    29.83R
$$

OKZ032-040>043-046>053-073>077-281300-
SOUTH CENTRAL/SOUTHEAST OKLAHOMA

CITY           SKY/WX    TMP DP  RH WIND       PRES   REMARKS
ARDMORE/DWNTWN CLOUDY    64  63  94 S8        29.85R
MCALESTER      CLOUDY    69  63  81 S14G21    29.86R HAZE
$$





USA.gov is the U.S. government's official web portal to all federal, state and local government web resources and services.